INTELSAT 40E (IS-40E)

Last updated on Sun Apr 12 2026 00:02:56 GMT+0000 (Coordinated Universal Time)

1 56174U 23052A 26101.50266397 -.00000173 00000+0 00000+0 0 9993 2 56174 0.0107 158.9447 0000897 267.9924 222.7436 1.00271665 11156
UTC large
Height (km)
Speed (km/s)
/
Latitude / Longitude
Inclination (degrees)
Orbital Period (minutes)
Azimuth
Elevation
Range (km)
Doppler Factor

Next 0 passes for location: London (51.5072 / 0.1276)

Sorry there are no passes over London.
INTELSAT 40E (IS-40E)